Data supplied by UK-AIR on 28/3/2017
All Data GMT hour ending 
Status: R =Ratified P=Provisional,P*=As supplied
,,Weybourne,,,,,,,,,,,,,,,,,,,,,,,
Date,time,"Ozone",status,unit
 
01-01-2016,01:00,57.87530,R,ugm-3
01-01-2016,02:00,52.08777,R,ugm-3
01-01-2016,03:00,48.89465,R,ugm-3
01-01-2016,04:00,47.54755,R,ugm-3
01-01-2016,05:00,46.59960,R,ugm-3
01-01-2016,06:00,43.10712,R,ugm-3
01-01-2016,07:00,43.00734,R,ugm-3
01-01-2016,08:00,42.35873,R,ugm-3
01-01-2016,09:00,43.00734,R,ugm-3
01-01-2016,10:00,48.44562,R,ugm-3
01-01-2016,11:00,46.49981,R,ugm-3
01-01-2016,12:00,54.93164,R,ugm-3
01-01-2016,13:00,52.58670,R,ugm-3
01-01-2016,14:00,53.88390,R,ugm-3
01-01-2016,15:00,58.22455,R,ugm-3
01-01-2016,16:00,59.17251,R,ugm-3
01-01-2016,17:00,60.86885,R,ugm-3
01-01-2016,18:00,57.47616,R,ugm-3
01-01-2016,19:00,54.58240,R,ugm-3
01-01-2016,20:00,55.33078,R,ugm-3
01-01-2016,21:00,50.59100,R,ugm-3
01-01-2016,22:00,43.80562,R,ugm-3
01-01-2016,23:00,47.14841,R,ugm-3
01-01-2016,24:00,45.60175,R,ugm-3
02-01-2016,01:00,43.90540,R,ugm-3
02-01-2016,02:00,41.64361,R,ugm-3
02-01-2016,03:00,41.31099,R,ugm-3
02-01-2016,04:00,41.80992,R,ugm-3
02-01-2016,05:00,42.55830,R,ugm-3
02-01-2016,06:00,45.20261,R,ugm-3
02-01-2016,07:00,43.45637,R,ugm-3
02-01-2016,08:00,41.80992,R,ugm-3
02-01-2016,09:00,40.91185,R,ugm-3
02-01-2016,10:00,42.00949,R,ugm-3
02-01-2016,11:00,43.45637,R,ugm-3
02-01-2016,12:00,42.35873,R,ugm-3
02-01-2016,13:00,41.36088,R,ugm-3
02-01-2016,14:00,42.90755,R,ugm-3
02-01-2016,15:00,44.95314,R,ugm-3
02-01-2016,16:00,46.94884,R,ugm-3
02-01-2016,17:00,48.24605,R,ugm-3
02-01-2016,18:00,54.03358,R,ugm-3
02-01-2016,19:00,56.22885,R,ugm-3
02-01-2016,20:00,57.27659,R,ugm-3
02-01-2016,21:00,61.01853,R,ugm-3
02-01-2016,22:00,59.67143,R,ugm-3
02-01-2016,23:00,54.88175,R,ugm-3
02-01-2016,24:00,51.88820,R,ugm-3
03-01-2016,01:00,46.23372,R,ugm-3
03-01-2016,02:00,42.24232,R,ugm-3
03-01-2016,03:00,37.71873,R,ugm-3
03-01-2016,04:00,46.94884,R,ugm-3
03-01-2016,05:00,49.64304,R,ugm-3
03-01-2016,06:00,45.10282,R,ugm-3
03-01-2016,07:00,41.26110,R,ugm-3
03-01-2016,08:00,55.77982,R,ugm-3
03-01-2016,09:00,60.32003,R,ugm-3
03-01-2016,10:00,60.51960,R,ugm-3
03-01-2016,11:00,62.01638,R,ugm-3
03-01-2016,12:00,62.06627,R,ugm-3
03-01-2016,13:00,64.11186,R,ugm-3
03-01-2016,14:00,65.15961,R,ugm-3
03-01-2016,15:00,66.20735,R,ugm-3
03-01-2016,16:00,63.06412,R,ugm-3
03-01-2016,17:00,60.81896,R,ugm-3
03-01-2016,18:00,61.31788,R,ugm-3
03-01-2016,19:00,61.81681,R,ugm-3
03-01-2016,20:00,60.66928,R,ugm-3
03-01-2016,21:00,58.77337,R,ugm-3
03-01-2016,22:00,55.97939,R,ugm-3
03-01-2016,23:00,54.73207,R,ugm-3
03-01-2016,24:00,53.03573,R,ugm-3
04-01-2016,01:00,52.28734,R,ugm-3
04-01-2016,02:00,50.42469,R,ugm-3
04-01-2016,03:00,47.14841,R,ugm-3
04-01-2016,04:00,47.04863,R,ugm-3
04-01-2016,05:00,48.59530,R,ugm-3
04-01-2016,06:00,50.04218,R,ugm-3
04-01-2016,07:00,47.34798,R,ugm-3
04-01-2016,08:00,45.85121,R,ugm-3
04-01-2016,09:00,45.95099,R,ugm-3
04-01-2016,10:00,42.20906,R,ugm-3
04-01-2016,11:00,41.66024,R,ugm-3
04-01-2016,12:00,43.05723,R,ugm-3
04-01-2016,13:00,42.95744,R,ugm-3
04-01-2016,14:00,47.39788,R,ugm-3
04-01-2016,15:00,50.79057,R,ugm-3
04-01-2016,16:00,52.48691,R,ugm-3
04-01-2016,17:00,50.64089,R,ugm-3
04-01-2016,18:00,52.43702,R,ugm-3
04-01-2016,19:00,46.15056,R,ugm-3
04-01-2016,20:00,42.25895,R,ugm-3
04-01-2016,21:00,38.86626,R,ugm-3
04-01-2016,22:00,36.52131,R,ugm-3
04-01-2016,23:00,35.07443,R,ugm-3
04-01-2016,24:00,34.47572,R,ugm-3
05-01-2016,01:00,37.98482,R,ugm-3
05-01-2016,02:00,42.37536,R,ugm-3
05-01-2016,03:00,47.09852,R,ugm-3
05-01-2016,04:00,49.89250,R,ugm-3
05-01-2016,05:00,53.88390,R,ugm-3
05-01-2016,06:00,56.82756,R,ugm-3
05-01-2016,07:00,57.32648,R,ugm-3
05-01-2016,08:00,55.03143,R,ugm-3
05-01-2016,09:00,50.24175,R,ugm-3
05-01-2016,10:00,46.74927,R,ugm-3
05-01-2016,11:00,49.99229,R,ugm-3
05-01-2016,12:00,50.14196,R,ugm-3
05-01-2016,13:00,52.38713,R,ugm-3
05-01-2016,14:00,48.39573,R,ugm-3
05-01-2016,15:00,49.74282,R,ugm-3
05-01-2016,16:00,43.40648,R,ugm-3
05-01-2016,17:00,40.71228,R,ugm-3
05-01-2016,18:00,37.26970,R,ugm-3
05-01-2016,19:00,38.81637,R,ugm-3
05-01-2016,20:00,37.96819,R,ugm-3
05-01-2016,21:00,35.72303,R,ugm-3
05-01-2016,22:00,36.67099,R,ugm-3
05-01-2016,23:00,40.41293,R,ugm-3
05-01-2016,24:00,47.64734,R,ugm-3
06-01-2016,01:00,49.22727,R,ugm-3
06-01-2016,02:00,47.56418,R,ugm-3
06-01-2016,03:00,48.09637,R,ugm-3
06-01-2016,04:00,46.00089,R,ugm-3
06-01-2016,05:00,50.64089,R,ugm-3
06-01-2016,06:00,58.37423,R,ugm-3
06-01-2016,07:00,58.97294,R,ugm-3
06-01-2016,08:00,51.98799,R,ugm-3
06-01-2016,09:00,46.40003,R,ugm-3
06-01-2016,10:00,43.65594,R,ugm-3
06-01-2016,11:00,52.13766,R,ugm-3
06-01-2016,12:00,59.42197,R,ugm-3
06-01-2016,13:00,58.77337,R,ugm-3
06-01-2016,14:00,56.32863,R,ugm-3
06-01-2016,15:00,53.88390,R,ugm-3
06-01-2016,16:00,51.63874,R,ugm-3
06-01-2016,17:00,42.40863,R,ugm-3
06-01-2016,18:00,47.24820,R,ugm-3
06-01-2016,19:00,43.60605,R,ugm-3
06-01-2016,20:00,34.82497,R,ugm-3
06-01-2016,21:00,32.38023,R,ugm-3
06-01-2016,22:00,28.38883,R,ugm-3
06-01-2016,23:00,27.44088,R,ugm-3
06-01-2016,24:00,29.03744,R,ugm-3
07-01-2016,01:00,31.19944,R,ugm-3
07-01-2016,02:00,37.71873,R,ugm-3
07-01-2016,03:00,33.87701,R,ugm-3
07-01-2016,04:00,31.18281,R,ugm-3
07-01-2016,05:00,42.35873,R,ugm-3
07-01-2016,06:00,41.66024,R,ugm-3
07-01-2016,07:00,44.80347,R,ugm-3
07-01-2016,08:00,54.43272,R,ugm-3
07-01-2016,09:00,53.38498,R,ugm-3
07-01-2016,10:00,55.63014,R,ugm-3
07-01-2016,11:00,61.11831,R,ugm-3
07-01-2016,12:00,58.22455,R,ugm-3
07-01-2016,13:00,56.42842,R,ugm-3
07-01-2016,14:00,50.19186,R,ugm-3
07-01-2016,15:00,62.91444,R,ugm-3
07-01-2016,16:00,68.35273,R,ugm-3
07-01-2016,17:00,65.85810,R,ugm-3
07-01-2016,18:00,62.16606,R,ugm-3
07-01-2016,19:00,63.71272,R,ugm-3
07-01-2016,20:00,62.61509,R,ugm-3
07-01-2016,21:00,59.87100,R,ugm-3
07-01-2016,22:00,58.17466,R,ugm-3
07-01-2016,23:00,59.92089,R,ugm-3
07-01-2016,24:00,60.17036,R,ugm-3
08-01-2016,01:00,61.06842,R,ugm-3
08-01-2016,02:00,56.61136,R,ugm-3
08-01-2016,03:00,59.72132,R,ugm-3
08-01-2016,04:00,57.57595,R,ugm-3
08-01-2016,05:00,56.32863,R,ugm-3
08-01-2016,06:00,50.24175,R,ugm-3
08-01-2016,07:00,46.10067,R,ugm-3
08-01-2016,08:00,47.94669,R,ugm-3
08-01-2016,09:00,50.39143,R,ugm-3
08-01-2016,10:00,50.04218,R,ugm-3
08-01-2016,11:00,48.34583,R,ugm-3
08-01-2016,12:00,48.64519,R,ugm-3
08-01-2016,13:00,49.89250,R,ugm-3
08-01-2016,14:00,52.63659,R,ugm-3
08-01-2016,15:00,52.53680,R,ugm-3
08-01-2016,16:00,56.12906,R,ugm-3
08-01-2016,17:00,52.68648,R,ugm-3
08-01-2016,18:00,48.64519,R,ugm-3
08-01-2016,19:00,46.44992,R,ugm-3
08-01-2016,20:00,46.99874,R,ugm-3
08-01-2016,21:00,46.00089,R,ugm-3
08-01-2016,22:00,44.00519,R,ugm-3
08-01-2016,23:00,40.21336,R,ugm-3
08-01-2016,24:00,34.17636,R,ugm-3
09-01-2016,01:00,33.12862,R,ugm-3
09-01-2016,02:00,41.31099,R,ugm-3
09-01-2016,03:00,47.14841,R,ugm-3
09-01-2016,04:00,52.83616,R,ugm-3
09-01-2016,05:00,56.22885,R,ugm-3
09-01-2016,06:00,56.77767,R,ugm-3
09-01-2016,07:00,57.97509,R,ugm-3
09-01-2016,08:00,57.12691,R,ugm-3
09-01-2016,09:00,55.18111,R,ugm-3
09-01-2016,10:00,56.72777,R,ugm-3
09-01-2016,11:00,57.67573,R,ugm-3
09-01-2016,12:00,58.77337,R,ugm-3
09-01-2016,13:00,60.41982,R,ugm-3
09-01-2016,14:00,61.91659,R,ugm-3
09-01-2016,15:00,61.56735,R,ugm-3
09-01-2016,16:00,58.97294,R,ugm-3
09-01-2016,17:00,58.22455,R,ugm-3
09-01-2016,18:00,61.86670,R,ugm-3
09-01-2016,19:00,63.41337,R,ugm-3
09-01-2016,20:00,64.16176,R,ugm-3
09-01-2016,21:00,64.71057,R,ugm-3
09-01-2016,22:00,65.50885,R,ugm-3
09-01-2016,23:00,68.95144,R,ugm-3
09-01-2016,24:00,81.02542,R,ugm-3
10-01-2016,01:00,79.69495,R,ugm-3
10-01-2016,02:00,76.43531,R,ugm-3
10-01-2016,03:00,73.84090,R,ugm-3
10-01-2016,04:00,71.89509,R,ugm-3
10-01-2016,05:00,71.34628,R,ugm-3
10-01-2016,06:00,71.19660,R,ugm-3
10-01-2016,07:00,69.45036,R,ugm-3
10-01-2016,08:00,70.14886,R,ugm-3
10-01-2016,09:00,68.35273,R,ugm-3
10-01-2016,10:00,67.60434,R,ugm-3
10-01-2016,11:00,66.60649,R,ugm-3
10-01-2016,12:00,66.50670,R,ugm-3
10-01-2016,13:00,66.95574,R,ugm-3
10-01-2016,14:00,67.35488,R,ugm-3
10-01-2016,15:00,64.11186,R,ugm-3
10-01-2016,16:00,60.61939,R,ugm-3
10-01-2016,17:00,59.72132,R,ugm-3
10-01-2016,18:00,53.33508,R,ugm-3
10-01-2016,19:00,53.33508,R,ugm-3
10-01-2016,20:00,57.02713,R,ugm-3
10-01-2016,21:00,53.18541,R,ugm-3
10-01-2016,22:00,53.08562,R,ugm-3
10-01-2016,23:00,53.78412,R,ugm-3
10-01-2016,24:00,50.79057,R,ugm-3
11-01-2016,01:00,49.69293,R,ugm-3
11-01-2016,02:00,55.01480,R,ugm-3
11-01-2016,03:00,57.82541,R,ugm-3
11-01-2016,04:00,57.52605,R,ugm-3
11-01-2016,05:00,59.62154,R,ugm-3
11-01-2016,06:00,56.27874,R,ugm-3
11-01-2016,07:00,53.13551,R,ugm-3
11-01-2016,08:00,57.52605,R,ugm-3
11-01-2016,09:00,64.01208,R,ugm-3
11-01-2016,10:00,72.94284,R,ugm-3
11-01-2016,11:00,70.29853,R,ugm-3
11-01-2016,12:00,67.20520,R,ugm-3
11-01-2016,13:00,63.31358,R,ugm-3
11-01-2016,14:00,62.06627,R,ugm-3
11-01-2016,15:00,65.45896,R,ugm-3
11-01-2016,16:00,62.06627,R,ugm-3
11-01-2016,17:00,47.09852,R,ugm-3
11-01-2016,18:00,38.11787,R,ugm-3
11-01-2016,19:00,29.68604,R,ugm-3
11-01-2016,20:00,6.63570,R,ugm-3
11-01-2016,21:00,2.89377,R,ugm-3
11-01-2016,22:00,13.92001,R,ugm-3
11-01-2016,23:00,26.14367,R,ugm-3
11-01-2016,24:00,27.49077,R,ugm-3
12-01-2016,01:00,26.87543,R,ugm-3
12-01-2016,02:00,23.68231,R,ugm-3
12-01-2016,03:00,26.99184,R,ugm-3
12-01-2016,04:00,35.02454,R,ugm-3
12-01-2016,05:00,42.50841,R,ugm-3
12-01-2016,06:00,45.00304,R,ugm-3
12-01-2016,07:00,46.10067,R,ugm-3
12-01-2016,08:00,45.20261,R,ugm-3
12-01-2016,09:00,45.25250,R,ugm-3
12-01-2016,10:00,43.75572,R,ugm-3
12-01-2016,11:00,44.45422,R,ugm-3
12-01-2016,12:00,44.45422,R,ugm-3
12-01-2016,13:00,42.65809,R,ugm-3
12-01-2016,14:00,40.56260,R,ugm-3
12-01-2016,15:00,41.51056,R,ugm-3
12-01-2016,16:00,44.20476,R,ugm-3
12-01-2016,17:00,46.49981,R,ugm-3
12-01-2016,18:00,52.33723,R,ugm-3
12-01-2016,19:00,52.58670,R,ugm-3
12-01-2016,20:00,65.50885,R,ugm-3
12-01-2016,21:00,59.12261,R,ugm-3
12-01-2016,22:00,53.78412,R,ugm-3
12-01-2016,23:00,53.68433,R,ugm-3
12-01-2016,24:00,52.83616,R,ugm-3
13-01-2016,01:00,52.35386,R,ugm-3
13-01-2016,02:00,48.49551,R,ugm-3
13-01-2016,03:00,41.21121,R,ugm-3
13-01-2016,04:00,38.71658,R,ugm-3
13-01-2016,05:00,44.75357,R,ugm-3
13-01-2016,06:00,49.29379,R,ugm-3
13-01-2016,07:00,46.00089,R,ugm-3
13-01-2016,08:00,55.23100,R,ugm-3
13-01-2016,09:00,55.82971,R,ugm-3
13-01-2016,10:00,56.82756,R,ugm-3
13-01-2016,11:00,57.42627,R,ugm-3
13-01-2016,12:00,57.32648,R,ugm-3
13-01-2016,13:00,54.98154,R,ugm-3
13-01-2016,14:00,52.58670,R,ugm-3
13-01-2016,15:00,51.53895,R,ugm-3
13-01-2016,16:00,45.90110,R,ugm-3
13-01-2016,17:00,45.65164,R,ugm-3
13-01-2016,18:00,44.00519,R,ugm-3
13-01-2016,19:00,40.91185,R,ugm-3
13-01-2016,20:00,32.18066,R,ugm-3
13-01-2016,21:00,34.12647,R,ugm-3
13-01-2016,22:00,41.80992,R,ugm-3
13-01-2016,23:00,48.99444,R,ugm-3
13-01-2016,24:00,56.52820,R,ugm-3
14-01-2016,01:00,59.53838,R,ugm-3
14-01-2016,02:00,60.33666,R,ugm-3
14-01-2016,03:00,60.56950,R,ugm-3
14-01-2016,04:00,60.96864,R,ugm-3
14-01-2016,05:00,62.71487,R,ugm-3
14-01-2016,06:00,65.60864,R,ugm-3
14-01-2016,07:00,63.81251,R,ugm-3
14-01-2016,08:00,62.21595,R,ugm-3
14-01-2016,09:00,60.76907,R,ugm-3
14-01-2016,10:00,58.02498,R,ugm-3
14-01-2016,11:00,53.73422,R,ugm-3
14-01-2016,12:00,39.56475,R,ugm-3
14-01-2016,13:00,35.32389,R,ugm-3
14-01-2016,14:00,62.26584,R,ugm-3
14-01-2016,15:00,74.73897,R,ugm-3
14-01-2016,16:00,69.69982,R,ugm-3
14-01-2016,17:00,68.60219,R,ugm-3
14-01-2016,18:00,68.60219,R,ugm-3
14-01-2016,19:00,65.70842,R,ugm-3
14-01-2016,20:00,67.60434,R,ugm-3
14-01-2016,21:00,70.09896,R,ugm-3
14-01-2016,22:00,66.80606,R,ugm-3
14-01-2016,23:00,57.37638,R,ugm-3
14-01-2016,24:00,66.75617,R,ugm-3
15-01-2016,01:00,68.45251,R,ugm-3
15-01-2016,02:00,68.98470,R,ugm-3
15-01-2016,03:00,69.00133,R,ugm-3
15-01-2016,04:00,68.85165,R,ugm-3
15-01-2016,05:00,65.50885,R,ugm-3
15-01-2016,06:00,66.85595,R,ugm-3
15-01-2016,07:00,66.35703,R,ugm-3
15-01-2016,08:00,66.20735,R,ugm-3
15-01-2016,09:00,65.50885,R,ugm-3
15-01-2016,10:00,65.45896,R,ugm-3
15-01-2016,11:00,63.46326,R,ugm-3
15-01-2016,12:00,66.35703,R,ugm-3
15-01-2016,13:00,71.59574,R,ugm-3
15-01-2016,14:00,66.50670,R,ugm-3
15-01-2016,15:00,65.90799,R,ugm-3
15-01-2016,16:00,64.56090,R,ugm-3
15-01-2016,17:00,63.36348,R,ugm-3
15-01-2016,18:00,63.36348,R,ugm-3
15-01-2016,19:00,52.53680,R,ugm-3
15-01-2016,20:00,51.13981,R,ugm-3
15-01-2016,21:00,51.78842,R,ugm-3
15-01-2016,22:00,55.23100,R,ugm-3
15-01-2016,23:00,51.08992,R,ugm-3
15-01-2016,24:00,53.03573,R,ugm-3
16-01-2016,01:00,53.68433,R,ugm-3
16-01-2016,02:00,76.30226,R,ugm-3
16-01-2016,03:00,63.01423,R,ugm-3
16-01-2016,04:00,71.09681,R,ugm-3
16-01-2016,05:00,77.93209,R,ugm-3
16-01-2016,06:00,78.43101,R,ugm-3
16-01-2016,07:00,78.43101,R,ugm-3
16-01-2016,08:00,63.31358,R,ugm-3
16-01-2016,09:00,67.25509,R,ugm-3
16-01-2016,10:00,68.20305,R,ugm-3
16-01-2016,11:00,70.09896,R,ugm-3
16-01-2016,12:00,66.75617,R,ugm-3
16-01-2016,13:00,75.88649,R,ugm-3
16-01-2016,14:00,79.07961,R,ugm-3
16-01-2016,15:00,77.08391,R,ugm-3
16-01-2016,16:00,79.12951,R,ugm-3
16-01-2016,17:00,72.69337,R,ugm-3
16-01-2016,18:00,76.13596,R,ugm-3
16-01-2016,19:00,65.50885,R,ugm-3
16-01-2016,20:00,47.79702,R,ugm-3
16-01-2016,21:00,61.21810,R,ugm-3
16-01-2016,22:00,79.37897,R,ugm-3
16-01-2016,23:00,79.47875,R,ugm-3
16-01-2016,24:00,63.11401,R,ugm-3
17-01-2016,01:00,64.59416,R,ugm-3
17-01-2016,02:00,49.89250,R,ugm-3
17-01-2016,03:00,56.22885,R,ugm-3
17-01-2016,04:00,72.89294,R,ugm-3
17-01-2016,05:00,68.55230,R,ugm-3
17-01-2016,06:00,72.49380,R,ugm-3
17-01-2016,07:00,69.99918,R,ugm-3
17-01-2016,08:00,71.09681,R,ugm-3
17-01-2016,09:00,71.64563,R,ugm-3
17-01-2016,10:00,68.80176,R,ugm-3
17-01-2016,11:00,65.15961,R,ugm-3
17-01-2016,12:00,67.20520,R,ugm-3
17-01-2016,13:00,70.69767,R,ugm-3
17-01-2016,14:00,70.94714,R,ugm-3
17-01-2016,15:00,69.99918,R,ugm-3
17-01-2016,16:00,68.85165,R,ugm-3
17-01-2016,17:00,64.31143,R,ugm-3
17-01-2016,18:00,62.46541,R,ugm-3
17-01-2016,19:00,61.66713,R,ugm-3
17-01-2016,20:00,60.27014,R,ugm-3
17-01-2016,21:00,58.62369,R,ugm-3
17-01-2016,22:00,58.17466,R,ugm-3
17-01-2016,23:00,59.67143,R,ugm-3
17-01-2016,24:00,58.27444,R,ugm-3
18-01-2016,01:00,55.14784,R,ugm-3
18-01-2016,02:00,53.68433,R,ugm-3
18-01-2016,03:00,54.33293,R,ugm-3
18-01-2016,04:00,56.12906,R,ugm-3
18-01-2016,05:00,56.87745,R,ugm-3
18-01-2016,06:00,57.87530,R,ugm-3
18-01-2016,07:00,58.02498,R,ugm-3
18-01-2016,08:00,55.68003,R,ugm-3
18-01-2016,09:00,51.78842,R,ugm-3
18-01-2016,10:00,48.69508,R,ugm-3
18-01-2016,11:00,50.39143,R,ugm-3
18-01-2016,12:00,53.73422,R,ugm-3
18-01-2016,13:00,55.03143,R,ugm-3
18-01-2016,14:00,58.62369,R,ugm-3
18-01-2016,15:00,56.52820,R,ugm-3
18-01-2016,16:00,51.18971,R,ugm-3
18-01-2016,17:00,50.44132,R,ugm-3
18-01-2016,18:00,46.99874,R,ugm-3
18-01-2016,19:00,44.45422,R,ugm-3
18-01-2016,20:00,39.21551,R,ugm-3
18-01-2016,21:00,38.86626,R,ugm-3
18-01-2016,22:00,39.26540,R,ugm-3
18-01-2016,23:00,35.87271,R,ugm-3
18-01-2016,24:00,34.27615,R,ugm-3
19-01-2016,01:00,36.25522,R,ugm-3
19-01-2016,02:00,36.78740,R,ugm-3
19-01-2016,03:00,39.11572,R,ugm-3
19-01-2016,04:00,40.91185,R,ugm-3
19-01-2016,05:00,36.42153,R,ugm-3
19-01-2016,06:00,32.87916,R,ugm-3
19-01-2016,07:00,27.64045,R,ugm-3
19-01-2016,08:00,23.54926,R,ugm-3
19-01-2016,09:00,20.05679,R,ugm-3
19-01-2016,10:00,18.75958,R,ugm-3
19-01-2016,11:00,20.75528,R,ugm-3
19-01-2016,12:00,24.89636,R,ugm-3
19-01-2016,13:00,20.70539,R,ugm-3
19-01-2016,14:00,17.36259,R,ugm-3
19-01-2016,15:00,12.27356,R,ugm-3
19-01-2016,16:00,5.78753,R,ugm-3
19-01-2016,17:00,1.39699,R,ugm-3
19-01-2016,18:00,0.49893,R,ugm-3
19-01-2016,19:00,1.19742,R,ugm-3
19-01-2016,20:00,1.14753,R,ugm-3
19-01-2016,21:00,14.66840,R,ugm-3
19-01-2016,22:00,12.17377,R,ugm-3
19-01-2016,23:00,17.66195,R,ugm-3
19-01-2016,24:00,17.71184,R,ugm-3
20-01-2016,01:00,9.37979,R,ugm-3
20-01-2016,02:00,15.76603,R,ugm-3
20-01-2016,03:00,40.41293,R,ugm-3
20-01-2016,04:00,12.42323,R,ugm-3
20-01-2016,05:00,5.78753,R,ugm-3
20-01-2016,06:00,11.07614,R,ugm-3
20-01-2016,07:00,13.42108,R,ugm-3
20-01-2016,08:00,19.05894,R,ugm-3
20-01-2016,09:00,24.84647,R,ugm-3
20-01-2016,10:00,32.28045,R,ugm-3
20-01-2016,11:00,40.66239,R,ugm-3
20-01-2016,12:00,57.67573,R,ugm-3
20-01-2016,13:00,54.03358,R,ugm-3
20-01-2016,14:00,52.23745,R,ugm-3
20-01-2016,15:00,48.84476,R,ugm-3
20-01-2016,16:00,46.40003,R,ugm-3
20-01-2016,17:00,41.36088,R,ugm-3
20-01-2016,18:00,41.71013,R,ugm-3
20-01-2016,19:00,40.06368,R,ugm-3
20-01-2016,20:00,36.02239,R,ugm-3
20-01-2016,21:00,32.23056,R,ugm-3
20-01-2016,22:00,30.38453,R,ugm-3
20-01-2016,23:00,30.83357,R,ugm-3
20-01-2016,24:00,27.39098,R,ugm-3
21-01-2016,01:00,9.91198,R,ugm-3
21-01-2016,02:00,0.26609,R,ugm-3
21-01-2016,03:00,2.64430,R,ugm-3
21-01-2016,04:00,26.29335,R,ugm-3
21-01-2016,05:00,27.88991,R,ugm-3
21-01-2016,06:00,30.53421,R,ugm-3
21-01-2016,07:00,23.05034,R,ugm-3
21-01-2016,08:00,22.35184,R,ugm-3
21-01-2016,09:00,23.29980,R,ugm-3
21-01-2016,10:00,17.91141,R,ugm-3
21-01-2016,11:00,22.95055,R,ugm-3
21-01-2016,12:00,26.39313,R,ugm-3
21-01-2016,13:00,25.99399,R,ugm-3
21-01-2016,14:00,25.09593,R,ugm-3
21-01-2016,15:00,25.34539,R,ugm-3
21-01-2016,16:00,28.38883,R,ugm-3
21-01-2016,17:00,32.52991,R,ugm-3
21-01-2016,18:00,32.92905,R,ugm-3
21-01-2016,19:00,34.82497,R,ugm-3
21-01-2016,20:00,36.42153,R,ugm-3
21-01-2016,21:00,39.61465,R,ugm-3
21-01-2016,22:00,41.16131,R,ugm-3
21-01-2016,23:00,40.56260,R,ugm-3
21-01-2016,24:00,40.76217,R,ugm-3
22-01-2016,01:00,35.85608,R,ugm-3
22-01-2016,02:00,43.70583,R,ugm-3
22-01-2016,03:00,52.73637,R,ugm-3
22-01-2016,04:00,56.87745,R,ugm-3
22-01-2016,05:00,56.92734,R,ugm-3
22-01-2016,06:00,56.02928,R,ugm-3
22-01-2016,07:00,56.57810,R,ugm-3
22-01-2016,08:00,55.87960,R,ugm-3
22-01-2016,09:00,52.53680,R,ugm-3
22-01-2016,10:00,49.99229,R,ugm-3
22-01-2016,11:00,50.24175,R,ugm-3
22-01-2016,12:00,44.70368,R,ugm-3
22-01-2016,13:00,42.15916,R,ugm-3
22-01-2016,14:00,39.16561,R,ugm-3
22-01-2016,15:00,36.97034,R,ugm-3
22-01-2016,16:00,35.77292,R,ugm-3
22-01-2016,17:00,30.73378,R,ugm-3
22-01-2016,18:00,27.98969,R,ugm-3
22-01-2016,19:00,26.29335,R,ugm-3
22-01-2016,20:00,27.04174,R,ugm-3
22-01-2016,21:00,37.26970,R,ugm-3
22-01-2016,22:00,44.75357,R,ugm-3
22-01-2016,23:00,49.09422,R,ugm-3
22-01-2016,24:00,52.58670,R,ugm-3
23-01-2016,01:00,55.08132,R,ugm-3
23-01-2016,02:00,55.41394,R,ugm-3
23-01-2016,03:00,55.08132,R,ugm-3
23-01-2016,04:00,55.68003,R,ugm-3
23-01-2016,05:00,56.07917,R,ugm-3
23-01-2016,06:00,56.27874,R,ugm-3
23-01-2016,07:00,53.28519,R,ugm-3
23-01-2016,08:00,52.18756,R,ugm-3
23-01-2016,09:00,50.89035,R,ugm-3
23-01-2016,10:00,51.63874,R,ugm-3
23-01-2016,11:00,53.23530,R,ugm-3
23-01-2016,12:00,54.73207,R,ugm-3
23-01-2016,13:00,55.77982,R,ugm-3
23-01-2016,14:00,56.17896,R,ugm-3
23-01-2016,15:00,60.71917,R,ugm-3
23-01-2016,16:00,59.27229,R,ugm-3
23-01-2016,17:00,54.63229,R,ugm-3
23-01-2016,18:00,50.64089,R,ugm-3
23-01-2016,19:00,47.14841,R,ugm-3
23-01-2016,20:00,46.54970,R,ugm-3
23-01-2016,21:00,53.48476,R,ugm-3
23-01-2016,22:00,56.47831,R,ugm-3
23-01-2016,23:00,55.23100,R,ugm-3
23-01-2016,24:00,48.84476,R,ugm-3
24-01-2016,01:00,44.63716,R,ugm-3
24-01-2016,02:00,44.37106,R,ugm-3
24-01-2016,03:00,44.40433,R,ugm-3
24-01-2016,04:00,43.75572,R,ugm-3
24-01-2016,05:00,42.20906,R,ugm-3
24-01-2016,06:00,40.76217,R,ugm-3
24-01-2016,07:00,41.01164,R,ugm-3
24-01-2016,08:00,39.51486,R,ugm-3
24-01-2016,09:00,38.41723,R,ugm-3
24-01-2016,10:00,38.26755,R,ugm-3
24-01-2016,11:00,38.76647,R,ugm-3
24-01-2016,12:00,39.31529,R,ugm-3
24-01-2016,13:00,38.91615,R,ugm-3
24-01-2016,14:00,39.71443,R,ugm-3
24-01-2016,15:00,39.16561,R,ugm-3
24-01-2016,16:00,39.26540,R,ugm-3
24-01-2016,17:00,36.72088,R,ugm-3
24-01-2016,18:00,38.51701,R,ugm-3
24-01-2016,19:00,35.52346,R,ugm-3
24-01-2016,20:00,31.38238,R,ugm-3
24-01-2016,21:00,32.67959,R,ugm-3
24-01-2016,22:00,33.97679,R,ugm-3
24-01-2016,23:00,32.52991,R,ugm-3
24-01-2016,24:00,33.87701,R,ugm-3
25-01-2016,01:00,32.99557,R,ugm-3
25-01-2016,02:00,32.92905,R,ugm-3
25-01-2016,03:00,34.12647,R,ugm-3
25-01-2016,04:00,34.47572,R,ugm-3
25-01-2016,05:00,35.32389,R,ugm-3
25-01-2016,06:00,37.07013,R,ugm-3
25-01-2016,07:00,31.63185,R,ugm-3
25-01-2016,08:00,33.72733,R,ugm-3
25-01-2016,09:00,38.31744,R,ugm-3
25-01-2016,10:00,41.01164,R,ugm-3
25-01-2016,11:00,43.40648,R,ugm-3
25-01-2016,12:00,42.75787,R,ugm-3
25-01-2016,13:00,40.01379,R,ugm-3
25-01-2016,14:00,37.16991,R,ugm-3
25-01-2016,15:00,35.52346,R,ugm-3
25-01-2016,16:00,35.02454,R,ugm-3
25-01-2016,17:00,38.41723,R,ugm-3
25-01-2016,18:00,59.32218,R,ugm-3
25-01-2016,19:00,63.46326,R,ugm-3
25-01-2016,20:00,73.49165,R,ugm-3
25-01-2016,21:00,73.24219,R,ugm-3
25-01-2016,22:00,69.25079,R,ugm-3
25-01-2016,23:00,67.70412,R,ugm-3
25-01-2016,24:00,64.96004,R,ugm-3
26-01-2016,01:00,62.66498,R,ugm-3
26-01-2016,02:00,57.27659,R,ugm-3
26-01-2016,03:00,53.18541,R,ugm-3
26-01-2016,04:00,54.18326,R,ugm-3
26-01-2016,05:00,57.57595,R,ugm-3
26-01-2016,06:00,54.08347,R,ugm-3
26-01-2016,07:00,51.33938,R,ugm-3
26-01-2016,08:00,52.53680,R,ugm-3
26-01-2016,09:00,53.88390,R,ugm-3
26-01-2016,10:00,56.72777,R,ugm-3
26-01-2016,11:00,57.02713,R,ugm-3
26-01-2016,12:00,59.12261,R,ugm-3
26-01-2016,13:00,62.71487,R,ugm-3
26-01-2016,14:00,65.25939,R,ugm-3
26-01-2016,15:00,63.86240,R,ugm-3
26-01-2016,16:00,64.06197,R,ugm-3
26-01-2016,17:00,65.00993,R,ugm-3
26-01-2016,18:00,67.20520,R,ugm-3
26-01-2016,19:00,68.25294,R,ugm-3
26-01-2016,20:00,68.80176,R,ugm-3
26-01-2016,21:00,69.10111,R,ugm-3
26-01-2016,22:00,69.20090,R,ugm-3
26-01-2016,23:00,69.20090,R,ugm-3
26-01-2016,24:00,69.50025,R,ugm-3
27-01-2016,01:00,70.11559,R,ugm-3
27-01-2016,02:00,69.91602,R,ugm-3
27-01-2016,03:00,69.94929,R,ugm-3
27-01-2016,04:00,69.84950,R,ugm-3
27-01-2016,05:00,70.79746,R,ugm-3
27-01-2016,06:00,71.04692,R,ugm-3
27-01-2016,07:00,71.74542,R,ugm-3
27-01-2016,08:00,73.74112,R,ugm-3
27-01-2016,09:00,71.84520,R,ugm-3
27-01-2016,10:00,68.50240,R,ugm-3
27-01-2016,11:00,67.20520,R,ugm-3
27-01-2016,12:00,67.25509,R,ugm-3
27-01-2016,13:00,65.85810,R,ugm-3
27-01-2016,14:00,66.95574,R,ugm-3
27-01-2016,15:00,66.95574,R,ugm-3
27-01-2016,16:00,67.15531,R,ugm-3
27-01-2016,17:00,71.54585,R,ugm-3
27-01-2016,18:00,65.35918,R,ugm-3
27-01-2016,19:00,64.56090,R,ugm-3
27-01-2016,20:00,66.80606,R,ugm-3
27-01-2016,21:00,64.56090,R,ugm-3
27-01-2016,22:00,69.40047,R,ugm-3
27-01-2016,23:00,68.05337,R,ugm-3
27-01-2016,24:00,69.50025,R,ugm-3
28-01-2016,01:00,68.91817,R,ugm-3
28-01-2016,02:00,66.45681,R,ugm-3
28-01-2016,03:00,62.01638,R,ugm-3
28-01-2016,04:00,62.16606,R,ugm-3
28-01-2016,05:00,64.06197,R,ugm-3
28-01-2016,06:00,66.40692,R,ugm-3
28-01-2016,07:00,64.96004,R,ugm-3
28-01-2016,08:00,59.32218,R,ugm-3
28-01-2016,09:00,58.47401,R,ugm-3
28-01-2016,10:00,58.42412,R,ugm-3
28-01-2016,11:00,59.57165,R,ugm-3
28-01-2016,12:00,63.06412,R,ugm-3
28-01-2016,13:00,63.91229,R,ugm-3
28-01-2016,14:00,66.40692,R,ugm-3
28-01-2016,15:00,67.30498,R,ugm-3
28-01-2016,16:00,62.56520,R,ugm-3
28-01-2016,17:00,60.22025,R,ugm-3
28-01-2016,18:00,64.46111,R,ugm-3
28-01-2016,19:00,63.31358,R,ugm-3
28-01-2016,20:00,64.11186,R,ugm-3
28-01-2016,21:00,66.15746,R,ugm-3
28-01-2016,22:00,67.25509,R,ugm-3
28-01-2016,23:00,67.10541,R,ugm-3
28-01-2016,24:00,68.55230,R,ugm-3
29-01-2016,01:00,69.58341,R,ugm-3
29-01-2016,02:00,69.78298,R,ugm-3
29-01-2016,03:00,69.79961,R,ugm-3
29-01-2016,04:00,70.79746,R,ugm-3
29-01-2016,05:00,71.14671,R,ugm-3
29-01-2016,06:00,71.29638,R,ugm-3
29-01-2016,07:00,71.69552,R,ugm-3
29-01-2016,08:00,72.14456,R,ugm-3
29-01-2016,09:00,73.49165,R,ugm-3
29-01-2016,10:00,72.34413,R,ugm-3
29-01-2016,11:00,68.00348,R,ugm-3
29-01-2016,12:00,71.94499,R,ugm-3
29-01-2016,13:00,69.35058,R,ugm-3
29-01-2016,14:00,70.89724,R,ugm-3
29-01-2016,15:00,70.79746,R,ugm-3
29-01-2016,16:00,70.24864,R,ugm-3
29-01-2016,17:00,69.35058,R,ugm-3
29-01-2016,18:00,71.24649,R,ugm-3
29-01-2016,19:00,73.19230,R,ugm-3
29-01-2016,20:00,68.10326,R,ugm-3
29-01-2016,21:00,67.85380,R,ugm-3
29-01-2016,22:00,69.69982,R,ugm-3
29-01-2016,23:00,70.74757,R,ugm-3
29-01-2016,24:00,71.79531,R,ugm-3
30-01-2016,01:00,72.11129,R,ugm-3
30-01-2016,02:00,82.08979,R,ugm-3
30-01-2016,03:00,82.92134,R,ugm-3
30-01-2016,04:00,79.17940,R,ugm-3